GW5319 Weather Reports


time (UTC)temp
C
wind
direction
speed
KPH
gust
KPH
rain 1hr
cm
rain 24hr
cm
rain mn
cm
humidity
%
barometer
mb
20260506104555 24 193 12.9 20.9 0.00 0.00 0.00 49 1012.4
20260506103055 23 293 9.7 25.7 0.00 0.00 0.00 51 1012.5
20260506101556 23 191 9.7 24.1 0.00 0.00 0.00 52 1012.5
20260506100056 23 278 6.4 24.1 0.00 0.00 0.00 53 1012.7
20260506094554 23 221 9.7 22.5 0.00 0.00 0.00 52 1012.8
20260506093057 23 236 6.4 27.4 0.00 0.00 0.00 52 1012.8
20260506091556 22 250 8.0 25.7 0.00 0.00 0.00 53 1012.9
20260506090052 22 247 6.4 20.9 0.00 0.00 0.00 54 1012.9
20260506084555 22 282 8.0 19.3 0.00 0.00 0.00 54 1012.9
20260506083053 22 240 8.0 17.7 0.00 0.00 0.00 54 1013.0
20260506081554 21 221 9.7 20.9 0.00 0.00 0.00 54 1013.0
20260506073059 20 203 8.0 16.1 0.00 0.00 0.00 58 1013.0
20260506071556 20 214 4.8 14.5 0.00 0.00 0.00 61 1013.0
20260506070115 19 228 3.2 14.5 0.00 0.00 0.00 62 1013.1
20260506061601 17 197 4.8 11.3 0.00 0.00 0.00 65 1013.2
20260506044601 12 315 1.6 11.3 0.00 0.00 0.00 78 1013.2
20260506043100 10 123 3.2 6.4 0.00 0.00 0.00 82 1012.9
20260506041556 9 298 0.0 1.6 0.00 0.00 0.00 84 1013.0
20260506040059 8 0 0.0 0.0 0.00 0.00 0.00 85 1013.0
20260506034557 8 0 0.0 0.0 0.00 0.00 0.00 85 1012.9
20260506033054 8 0 0.0 1.6 0.00 0.00 0.00 83 1012.9
20260506031602 9 0 0.0 1.6 0.00 0.00 0.00 83 1012.9
20260506030112 9 283 0.0 1.6 0.00 0.00 0.00 84 1012.9
20260506024556 9 0 0.0 3.2 0.00 0.00 0.00 83 1012.9
20260506023056 9 338 0.0 1.6 0.00 0.00 0.00 83 1012.9
20260506021614 9 315 0.0 1.6 0.00 0.00 0.00 83 1012.8
20260506020057 10 315 0.0 1.6 0.00 0.00 0.00 82 1012.8
20260506014602 10 315 0.0 1.6 0.00 0.00 0.00 83 1012.7
20260506013058 10 0 0.0 1.6 0.00 0.00 0.00 83 1012.7
20260506011558 10 0 0.0 3.2 0.00 0.00 0.00 82 1012.7
20260506010059 10 0 0.0 1.6 0.00 0.00 0.00 80 1012.7
20260506004625 10 293 0.0 1.6 0.00 0.00 0.00 81 1012.6
20260506003101 10 0 0.0 0.0 0.00 0.00 0.00 80 1012.6
20260506001600 10 0 0.0 1.6 0.00 0.00 0.00 80 1012.7
20260506000057 11 0 0.0 1.6 0.00 0.00 0.00 79 1012.5
20260505234618 12 0 0.0 1.6 0.00 0.00 0.00 76 1012.5
20260505233055 12 0 0.0 0.0 0.00 0.00 0.00 75 1012.6
20260505231554 12 0 0.0 0.0 0.00 0.00 0.00 75 1012.7
20260505230056 12 285 0.0 3.2 0.00 0.00 0.00 76 1012.8
20260505224557 13 0 0.0 1.6 0.00 0.00 0.00 73 1012.8
20260505223102 13 333 0.0 1.6 0.00 0.00 0.00 73 1013.0
20260505221613 13 0 0.0 0.0 0.00 0.00 0.00 73 1013.0
20260505220138 13 0 0.0 0.0 0.00 0.00 0.00 72 1013.0
20260505214615 14 338 0.0 3.2 0.00 0.00 0.00 69 1012.9
20260505213057 16 311 0.0 8.0 0.00 0.00 0.00 65 1013.0
20260505211612 16 289 1.6 8.0 0.00 0.00 0.00 64 1013.1
20260505210055 16 239 3.2 12.9 0.00 0.00 0.00 65 1013.0
20260505204558 16 0 0.0 3.2 0.00 0.00 0.00 65 1012.9
20260505203055 16 0 0.0 8.0 0.00 0.00 0.00 63 1012.9
20260505201607 16 283 0.0 8.0 0.00 0.00 0.00 63 1012.9
20260505194602 17 295 3.2 9.7 0.00 0.00 0.00 62 1012.9
20260505193056 17 269 6.4 17.7 0.00 0.00 0.00 60 1012.9
20260505191555 18 296 6.4 14.5 0.00 0.00 0.00 59 1012.8
20260505190100 18 309 4.8 20.9 0.00 0.00 0.00 58 1012.8
20260505184553 18 297 9.7 25.7 0.00 0.00 0.00 57 1012.6
20260505183055 18 310 11.3 25.7 0.00 0.00 0.00 57 1012.4
20260505181554 19 328 12.9 27.4 0.00 0.00 0.00 55 1012.3
20260505174558 20 272 11.3 27.4 0.00 0.00 0.00 54 1012.0
20260505173053 21 287 11.3 32.2 0.00 0.00 0.00 53 1011.9
20260505171554 21 255 12.9 30.6 0.00 0.00 0.00 51 1011.9
20260505170053 22 294 11.3 27.4 0.00 0.00 0.00 49 1011.7
20260505164620 23 271 11.3 25.7 0.00 0.00 0.00 46 1011.6
20260505163056 25 281 8.0 12.9 0.00 0.00 0.00 39 1011.5
20260505161558 25 310 6.4 12.9 0.00 0.00 0.00 36 1011.4
20260505153057 25 233 3.2 14.5 0.00 0.00 0.00 34 1011.5
20260505151556 25 0 3.2 16.1 0.00 0.00 0.00 33 1011.6
20260505124600 27 205 8.0 22.5 0.00 0.00 0.00 31 1012.6
20260505123100 27 153 6.4 17.7 0.00 0.00 0.00 33 1012.7
20260505121556 26 251 6.4 24.1 0.00 0.00 0.00 32 1013.0
20260505120101 26 192 8.0 14.5 0.00 0.00 0.00 33 1013.0
20260505114553 25 211 8.0 17.7 0.00 0.00 0.00 36 1013.3
20260505113055 26 204 6.4 17.7 0.00 0.00 0.00 35 1013.3
20260505111554 26 262 6.4 14.5 0.00 0.00 0.00 35 1013.6
20260505110106 26 225 4.8 24.1 0.00 0.00 0.00 38 1013.6